This is the latest recevied weather packets stored in our database for station/object R6DH-11. If no packets are shown the sender has not sent any weather packets the latest 10 day(s).
| Time | Temp. | Humidity | Pressure | Rain* | Wind** | Luminosity | Snow |
|---|---|---|---|---|---|---|---|
| 1777484226 | 11.67° C | 51% | 1017.3 hPa | - | - | - | - |
| 1777483326 | 11.67° C | 52% | 1017.2 hPa | - | - | - | - |
| 1777482426 | 12.78° C | 48% | 1017.1 hPa | - | - | - | - |
| 1777481526 | 13.33° C | 44% | 1016.9 hPa | - | - | - | - |
| 1777480626 | 13.89° C | 42% | 1016.7 hPa | - | - | - | - |
| 1777479726 | 15° C | 39% | 1016.7 hPa | - | - | - | - |
| 1777478826 | 15.56° C | 36% | 1016.8 hPa | - | - | - | - |
| 1777477925 | 16.11° C | 34% | 1016.7 hPa | - | - | - | - |
| 1777477025 | 16.67° C | 33% | 1016.6 hPa | - | - | - | - |
| 1777476125 | 16.11° C | 34% | 1016.6 hPa | - | - | - | - |
| 1777475225 | 16.11° C | 33% | 1016.6 hPa | - | - | - | - |
| 1777474325 | 16.67° C | 31% | 1016.6 hPa | - | - | - | - |
| 1777473424 | 17.22° C | 29% | 1016.6 hPa | - | - | - | - |
| 1777472524 | 17.22° C | 28% | 1016.6 hPa | - | - | - | - |
| 1777471624 | 18.33° C | 28% | 1016.5 hPa | - | - | - | - |
| 1777470724 | 18.33° C | 25% | 1016.5 hPa | - | - | - | - |
| 1777469824 | 17.78° C | 27% | 1016.5 hPa | - | - | - | - |
| 1777468927 | 18.89° C | 25% | 1016.4 hPa | - | - | - | - |
| 1777468026 | 18.33° C | 26% | 1016.5 hPa | - | - | - | - |
| 1777467126 | 19.44° C | 25% | 1016.6 hPa | - | - | - | - |
| 1777466226 | 18.89° C | 25% | 1016.5 hPa | - | - | - | - |
| 1777465326 | 20.56° C | 24% | 1016.4 hPa | - | - | - | - |
| 1777464426 | 19.44° C | 24% | 1016.5 hPa | - | - | - | - |
| 1777463526 | 19.44° C | 24% | 1016.6 hPa | - | - | - | - |
| 1777462626 | 21.67° C | 23% | 1016.6 hPa | - | - | - | - |
* Rain since midnight (hover to see other rain measurements)
** Current wind speed in m/s (hover to see current wind gust speed)